This is the latest recevied weather packets stored in our database for station/object KD9CCP. If no packets are shown the sender has not sent any weather packets the latest 10 day(s).
| Time | Temp. | Humidity | Pressure | Rain* | Wind** | Luminosity | Snow |
|---|---|---|---|---|---|---|---|
| 1777976566 | 3.33° C | 75% | 1005.2 hPa | 0 mm | - | 0 W/m² | - |
| 1777976266 | 3.33° C | 74% | 1005.3 hPa | 0 mm | - | 0 W/m² | - |
| 1777975961 | 3.33° C | 77% | 1005.3 hPa | 0 mm | - | 0 W/m² | - |
| 1777975658 | 2.78° C | 75% | 1005 hPa | 0 mm | - | 0 W/m² | - |
| 1777975355 | 2.78° C | 75% | 1004.9 hPa | 0 mm | - | 0 W/m² | - |
| 1777975050 | 2.78° C | 75% | 1005.1 hPa | 0 mm | - | 0 W/m² | - |
| 1777974748 | 2.78° C | 78% | 1004.8 hPa | 0 mm | - | 0 W/m² | - |
| 1777974443 | 2.78° C | 74% | 1004.9 hPa | 0 mm | - | 0 W/m² | - |
| 1777974140 | 2.78° C | 74% | 1005 hPa | 0 mm | - | 0 W/m² | - |
| 1777973836 | 2.78° C | 73% | 1004.9 hPa | 0 mm | - | 0 W/m² | - |
| 1777973534 | 2.78° C | 73% | 1004.7 hPa | 0 mm | - | 0 W/m² | - |
| 1777973230 | 2.78° C | 73% | 1004.7 hPa | 0 mm | - | 0 W/m² | - |
| 1777972930 | 2.78° C | 73% | 1004.5 hPa | 0 mm | - | 0 W/m² | - |
| 1777972626 | 2.78° C | 73% | 1004.7 hPa | 0 mm | - | 0 W/m² | - |
| 1777972324 | 2.78° C | 73% | 1004.7 hPa | 0 mm | - | 0 W/m² | - |
| 1777972021 | 2.78° C | 72% | 1004.7 hPa | 0 mm | - | 0 W/m² | - |
| 1777971719 | 2.78° C | 72% | 1004.5 hPa | 0 mm | - | 0 W/m² | - |
| 1777971417 | 2.78° C | 73% | 1004.5 hPa | 0 mm | - | 0 W/m² | - |
| 1777971115 | 2.78° C | 72% | 1004.2 hPa | 0 mm | - | 0 W/m² | - |
| 1777970812 | 2.78° C | 72% | 1004.2 hPa | 0 mm | - | 0 W/m² | - |
| 1777970511 | 2.22° C | 73% | 1004.2 hPa | 0 mm | - | 0 W/m² | - |
| 1777970207 | 2.22° C | 73% | 1004.3 hPa | 0 mm | - | 0 W/m² | - |
| 1777969904 | 2.78° C | 72% | 1004.2 hPa | 0 mm | - | 0 W/m² | - |
| 1777969600 | 2.78° C | 71% | 1004.5 hPa | 0 mm | - | 0 W/m² | - |
| 1777969297 | 2.78° C | 71% | 1004.3 hPa | 0 mm | - | 0 W/m² | - |
* Rain latest hour (hover to see other rain measurements)
** Current wind speed in m/s (hover to see current wind gust speed)